Regional Weather Roundup
Issued by NWS Jackson, KY

Home | Current Version | Previous Version | Text Only | Print | Product List | Glossary Off
Versions: 1 2 3 4 5 6 7 8 9 10 11 12 13 14 15 16 17 18 19 20 21 22 23 24 25 26 27

000
ASUS43 KJKL 060510
RWRJKL

EAST KENTUCKY HOURLY WEATHER ROUNDUP
NATIONAL WEATHER SERVICE JACKSON KY
100 AM EDT FRI MAY 06 2016

NOTE: "FAIR" INDICATES FEW OR NO CLOUDS BELOW 12,000 FEET WITH
NO SIGNIFICANT WEATHER AND/OR OBSTRUCTIONS TO VISIBILITY.

* THESE REPORTS ARE NOT UNDER NWS QUALITY CONTROL AND MAY NOT
  REPORT WEATHER SUCH AS PRECIPITATION AND FOG.

KYZ079-080-083-085-087-088-110-112-115-119-120-060600
...EASTERN KENTUCKY...

CITY           SKY/WX    TMP DP  RH WIND       PRES   REMARKS
JACKSON        CLEAR     46  43  89 W3        29.87S
LONDON         CLEAR     45  42  89 W5        29.90S
SOMERSET*      CLEAR     43  43 100 CALM      29.94R
MONTICELLO*    CLOUDY    47  44  90 W12       29.95S
WILLIAMSBURG*  CLEAR     45  45 100 W3        29.92R
MIDDLESBORO*   CLOUDY    50  45  82 NW10      29.90R
HARLAN APT*    CLOUDY    48  43  81 SW5       29.88S
HAZARD APT*    PTCLDY    48  46  93 W3        29.88
BLACK MTN*       N/A     39  41 100 N7          N/A  WCI  34
PIKE CO APT*   CLOUDY    47  46  96 W7        29.84S
BIG SANDY APT* PTCLDY    48  46  92 NW3       29.84S
MOREHEAD APT*  CLEAR     46  45  93 NW6       29.90R FOG
$$

KYZ035-036-041-042-044-050-067-078-099-060600
...CENTRAL KENTUCKY...

CITY           SKY/WX    TMP DP  RH WIND       PRES   REMARKS
MT STERLING*   CLEAR     45  45 100 NW5       29.91R
FLEMING/MASON* CLEAR     45  45  98 NW6       29.89R FOG
DANVILLE*      CLOUDY    50  43  76 NW9       29.93R
RICHMOND*      PTCLDY    45  43  93 W5        29.90S
LEXINGTON      CLOUDY    50  46  86 NW6       29.91R
FRANKFORT      CLOUDY    52  46  80 NW5       29.91R
LOUISVILLE     PTCLDY    53  44  71 NW6       29.94R
LEBANON*         N/A     46  45  93 SW3       29.94R
BOWLING GREEN  PTCLDY    50  45  83 W3        29.97S
$$

KYZ091>093-OHZ055-061-077-WVZ005-015-034-035-042-060600
...SOUTHERN OHIO/WEST VIRGINIA...

CITY           SKY/WX    TMP DP  RH WIND       PRES   REMARKS
COVINGTON      PTCLDY    52  45  77 NW8       29.91R
COLUMBUS       MOCLDY    52  42  69 N10       29.86R
DAYTON         PTCLDY    47  41  80 NW8       29.91S
WILMINGTON     CLEAR     48  39  71 N8        29.89R
HUNTINGTON       N/A     50  45  83 NW6       29.82S
CHARLESTON     CLOUDY    51  48  89 W6        29.79S
PINEVILLE*     DRIZZLE   48  46  90 MISG      29.83S
BECKLEY        LGT RAIN  46  44  93 NW9       29.76S
$$

VAZ002-007-008-TNZ017-027-036-066-071-060600
...SOUTHWEST VIRGINIA/EAST TENNESSEE...

CITY           SKY/WX    TMP DP  RH WIND       PRES   REMARKS
WISE*          CLOUDY    45  45 100 W9        29.84R
BRISTOL        CLOUDY    48  43  82 W6        29.83S
MORRISTOWN*    CLOUDY    48  41  76 W7        29.87S
SEVIERVILLE*   CLOUDY    48  39  71 W3        29.90R
KNOXVILLE      CLOUDY    49  42  77 SW7       29.91R
OAK RIDGE      PTCLDY    51  42  71 NW8       29.92S
CROSSVILLE     CLEAR     45  41  86 NW6       29.93S
NASHVILLE      CLEAR     50  43  77 NW3       29.98S
$$

...KEY TO REMARKS...
VSB - VISIBILITY IN MILES
WCI - WIND CHILL INDEX
HX  - HEAT INDEX

$$




USA.gov is the U.S. government's official web portal to all federal, state and local government web resources and services.